Location: Vancouver
(49.2500°N, 123.1330°W)
Time: 01:28:54
(UTC-08:00)

Cosmos 2333 Rocket - Visible Passes

Search period start: 23 February 2017 00:00
Search period end: 05 March 2017 00:00
Orbit: 840 x 862 km, 70.8° (Epoch: 22 February)

Date Brightness Start Highest point End Pass type
(mag) Time Alt. Az. Time Alt. Az. Time Alt. Az.
23 Feb 2.5 19:32:07 10° NNW 19:37:41 47° NE 19:39:38 34° ESE visible
23 Feb 3.5 21:16:39 10° NW 21:21:40 35° WSW 21:21:40 35° WSW visible
24 Feb 2.5 19:19:48 10° NNW 19:25:22 47° NE 19:28:17 26° ESE visible
24 Feb 3.5 21:04:21 10° NW 21:09:30 35° WSW 21:10:20 33° SW visible
25 Feb 2.5 19:07:30 10° NNW 19:13:03 47° NE 19:17:03 18° ESE visible
25 Feb 3.6 20:52:02 10° NW 20:57:11 35° WSW 20:59:07 28° SW visible
26 Feb 2.5 18:55:11 10° NNW 19:00:45 47° NE 19:05:58 12° SE visible
26 Feb 3.6 20:39:44 10° NW 20:44:53 35° WSW 20:48:03 20° SSW visible
27 Feb 2.5 18:42:52 10° NNW 18:48:27 47° NE 18:53:59 10° SE visible
27 Feb 3.7 20:27:26 10° NW 20:32:35 35° WSW 20:37:10 13° SSW visible
28 Feb 2.6 18:30:34 10° NNW 18:36:08 47° NE 18:41:41 10° SE visible
28 Feb 3.7 20:15:07 10° NW 20:20:16 35° WSW 20:25:24 10° S visible
01 Mar 2.6 18:18:15 10° NNW 18:23:50 47° NE 18:29:22 10° SE visible
01 Mar 3.7 20:02:49 10° NW 20:07:58 35° WSW 20:13:06 10° S visible
02 Mar 3.8 19:50:30 10° NW 19:55:39 35° WSW 20:00:48 10° S visible
03 Mar 3.8 19:38:11 10° NW 19:43:20 35° WSW 19:48:29 10° S visible
04 Mar 3.9 19:25:53 10° NW 19:31:02 35° WSW 19:36:11 10° S visible
